Weather History for Flagstaff, AZ

Change the Weather History Date:

Monday, April 8, 2013

  Actual Average Record
Temperature  
Mean Temperature 40 °F 41 °F  
Max Temperature 47 °F 56 °F 78 °F (1989)
Min Temperature 33 °F 27 °F 14 °F (1983)
Degree Days  
Heating Degree Days 25 24  
Month to date heating degree days 163 196  
Since 1 July heating degree days 5799 5903  
Cooling Degree Days 0 0  
Month to date cooling degree days 0 0  
Year to date cooling degree days 0 0  
Moisture  
Dew Point 29 °F    
Average Humidity 66    
Maximum Humidity 82    
Minimum Humidity 49    
Precipitation  
Precipitation 0.04 in 0.05 in 1.04 in (1935)
Month to date precipitation 0.04 0.38  
Year to date precipitation 4.92 6.71  
Snow  
Snow 0.20 in 0.30 in 7.40 in (1975)
Month to date snowfall 0.2 2.5  
Since 1 July snowfall 68.5 96.4  
Snow Depth 0.00 in    
Sea Level Pressure  
Sea Level Pressure 29.45 in    
Wind  
Wind Speed 17 mph (WSW)    
Max Wind Speed 45 mph    
Max Gust Speed 63 mph    
Visibility 6 miles    
Events Rain , Snow    
T = Trace of Precipitation, MM = Missing Value Source: NWS Daily Summary

Daily Weather History Graph

Daily Weather History Graph

Search for Another Location

Airport:

Trip Planner

Search our weather history database for the weather conditions in past years. The results will help you decide how hot, cold, wet, or windy it might be!

Date:

Astronomy

Apr. 08, 2013 Rise Set
Actual Time 6:03 AM MST 6:53 PM MST
Civil Twilight 5:37 AM MST 7:19 PM MST
Nautical Twilight 5:07 AM MST 7:50 PM MST
Astronomical Twilight 4:35 AM MST 8:21 PM MST
Moon 4:52 AM MST (4/8) 5:34 PM MST (4/8)
Length of Visible Light 13h 42m
Length of Day
12h 50m
Waning Crescent, 3% of the Moon is Illuminated
Apr 8
Waning Crescent
Apr 10
New
Apr 18
First Quarter
Apr 25
Full
May 2
Last Quarter

Hourly Weather History & Observations

Time (MST) Temp. Windchill Dew Point Humidity Pressure Visibility Wind Dir Wind Speed Gust Speed Precip Events Conditions
12:57 AM 43.0 °F 39.5 °F 26.1 °F 51% 29.62 in 10.0 mi SW 5.8 mph - N/A   Clear
1:57 AM 46.0 °F 39.6 °F 28.0 °F 50% 29.57 in 10.0 mi WSW 15.0 mph 21.9 mph N/A   Clear
2:57 AM 44.1 °F 37.1 °F 30.0 °F 58% 29.53 in 10.0 mi SSW 15.0 mph - N/A   Clear
3:57 AM 45.0 °F 37.9 °F 30.0 °F 56% 29.50 in 10.0 mi SW 16.1 mph - N/A   Clear
4:57 AM 44.1 °F 36.8 °F 32.0 °F 63% 29.45 in 10.0 mi SSW 16.1 mph - N/A   Clear
5:57 AM 43.0 °F 35.7 °F 33.1 °F 68% 29.46 in 10.0 mi SW 15.0 mph - N/A   Scattered Clouds
6:57 AM 44.1 °F 37.1 °F 30.9 °F 60% 29.42 in 10.0 mi SSW 15.0 mph 24.2 mph N/A   Overcast
7:57 AM 44.1 °F 35.7 °F 30.0 °F 58% 29.39 in 10.0 mi SSW 20.7 mph 34.5 mph N/A   Overcast
8:57 AM 45.0 °F 35.8 °F 33.1 °F 63% 29.38 in 10.0 mi SW 26.5 mph 40.3 mph N/A   Overcast
9:09 AM 44.6 °F 35.9 °F 32.0 °F 61% 29.56 in 10.0 mi SSW 23.0 mph 35.7 mph N/A   Overcast
9:20 AM 44.6 °F 36.4 °F 32.0 °F 61% 29.54 in 10.0 mi SSW 20.7 mph 35.7 mph N/A   Overcast
9:57 AM 44.1 °F 33.8 °F 32.0 °F 63% 29.34 in 10.0 mi SSW 31.1 mph 46.0 mph N/A   Overcast
10:57 AM 43.0 °F 32.4 °F 33.1 °F 68% 29.29 in 9.0 mi SSW 31.1 mph 47.2 mph 0.00 in Rain Light Rain
11:08 AM 41.0 °F 29.3 °F 33.8 °F 76% 29.46 in 6.0 mi SSW 33.4 mph 57.5 mph 0.00 in Rain Light Rain
11:57 AM 42.1 °F 30.1 °F 32.0 °F 67% 29.26 in 6.0 mi SSW 38.0 mph 63.3 mph 0.01 in Rain Rain
12:57 PM 43.0 °F 31.1 °F 33.1 °F 68% 29.26 in 10.0 mi SSW 40.3 mph 58.7 mph 0.01 in   Overcast
1:46 PM 37.4 °F 25.6 °F 32.0 °F 81% 29.47 in 2.5 mi WSW 26.5 mph 41.4 mph 0.00 in Snow Light Snow
1:57 PM 36.0 °F 26.0 °F 32.0 °F 86% 29.34 in 1.8 mi West 17.3 mph 35.7 mph 0.00 in Snow Light Snow
2:05 PM 35.6 °F 25.9 °F 32.0 °F 87% 29.49 in 2.0 mi West 16.1 mph 33.4 mph 0.01 in Snow Light Snow
2:11 PM 35.6 °F 24.5 °F 32.0 °F 87% 29.49 in 1.5 mi West 20.7 mph 31.1 mph 0.01 in Snow Light Snow
2:19 PM 33.8 °F 24.3 °F 32.0 °F 93% 29.49 in 1.2 mi West 13.8 mph 29.9 mph 0.01 in Snow Light Snow
2:32 PM 33.8 °F 22.8 °F 30.2 °F 87% 29.49 in 1.0 mi West 18.4 mph 31.1 mph 0.01 in Snow Light Snow
2:39 PM 35.6 °F 25.9 °F 30.2 °F 81% 29.49 in 2.0 mi West 16.1 mph 27.6 mph 0.01 in Snow Light Snow
2:48 PM 33.8 °F 22.2 °F 30.2 °F 87% 29.49 in 3.0 mi West 20.7 mph 34.5 mph 0.01 in Snow Light Snow
2:50 PM 33.8 °F 21.9 °F 30.2 °F 87% 29.49 in 1.8 mi West 21.9 mph 34.5 mph 0.01 in Snow Light Snow
2:57 PM 35.1 °F 25.2 °F 30.9 °F 85% 29.35 in 1.5 mi West 16.1 mph 34.5 mph 0.01 in Snow Light Snow
2:59 PM 35.6 °F 25.9 °F 30.2 °F 81% 29.48 in 2.0 mi West 16.1 mph 34.5 mph 0.00 in Snow Light Snow
3:04 PM 35.6 °F 28.0 °F 30.2 °F 81% 29.48 in 6.0 mi West 10.4 mph 28.8 mph 0.00 in Snow Light Snow
3:20 PM 35.6 °F 24.5 °F 30.2 °F 81% 29.50 in 2.0 mi West 20.7 mph 32.2 mph 0.00 in Snow Light Snow
3:26 PM 33.8 °F 22.2 °F 30.2 °F 87% 29.51 in 0.8 mi WSW 20.7 mph 35.7 mph 0.00 in Snow Light Snow
3:35 PM 33.8 °F 23.5 °F 28.4 °F 81% 29.50 in 1.0 mi West 16.1 mph 35.7 mph 0.00 in Snow Light Snow
3:38 PM 33.8 °F 22.8 °F 28.4 °F 81% 29.50 in 2.0 mi West 18.4 mph 29.9 mph 0.00 in Snow Light Snow
3:46 PM 33.8 °F 23.2 °F 26.6 °F 75% 29.50 in 5.0 mi WSW 17.3 mph 31.1 mph 0.00 in Snow Light Snow
3:55 PM 33.8 °F 23.9 °F 26.6 °F 75% 29.50 in 2.0 mi WSW 15.0 mph 25.3 mph 0.01 in Snow Light Snow
3:57 PM 35.1 °F 25.9 °F 27.0 °F 72% 29.36 in 2.5 mi WSW 13.8 mph 25.3 mph 0.01 in Snow Light Snow
4:04 PM 35.6 °F 24.5 °F 26.6 °F 70% 29.50 in 3.0 mi WSW 20.7 mph 35.7 mph 0.00 in Snow Light Snow
4:09 PM 35.6 °F 24.5 °F 26.6 °F 70% 29.50 in 1.8 mi SW 20.7 mph 35.7 mph 0.00 in Snow Light Snow
4:26 PM 33.8 °F 23.2 °F 26.6 °F 75% 29.51 in 3.0 mi SW 17.3 mph 26.5 mph 0.00 in Snow Light Snow
4:46 PM 37.4 °F 29.3 °F 26.6 °F 65% 29.50 in 10.0 mi WSW 12.7 mph 23.0 mph 0.00 in   Overcast
4:57 PM 37.0 °F 28.5 °F 25.0 °F 62% 29.37 in 10.0 mi WSW 13.8 mph 26.5 mph 0.00 in   Overcast
5:57 PM 37.9 °F 29.6 °F 23.0 °F 55% 29.38 in 10.0 mi WSW 13.8 mph 20.7 mph N/A   Overcast
6:57 PM 36.0 °F 30.3 °F 24.1 °F 62% 29.39 in 10.0 mi WSW 6.9 mph - N/A   Overcast
7:57 PM 36.0 °F 30.3 °F 23.0 °F 59% 29.41 in 10.0 mi WSW 6.9 mph - N/A   Overcast
8:57 PM 35.1 °F 29.3 °F 23.0 °F 61% 29.38 in 10.0 mi Variable 6.9 mph 18.4 mph N/A   Mostly Cloudy
9:57 PM 33.1 °F 28.7 °F 25.0 °F 72% 29.40 in 10.0 mi Variable 4.6 mph - N/A   Overcast
10:57 PM 33.1 °F 26.9 °F 25.0 °F 72% 29.38 in 10.0 mi Variable 6.9 mph - N/A   Partly Cloudy
11:29 PM 33.8 °F 27.7 °F 26.6 °F 75% 29.51 in 10.0 mi ENE 6.9 mph - N/A   Mostly Cloudy
11:57 PM 33.1 °F 30.0 °F 26.1 °F 75% 29.40 in 10.0 mi NNW 3.5 mph - N/A   Mostly Cloudy